This is the latest recevied weather packets stored in our database for station/object WB5HZM-3. If no packets are shown the sender has not sent any weather packets the latest 1 day(s).
| Time | Temp. | Humidity | Pressure | Rain* | Wind** | Luminosity | Snow |
|---|---|---|---|---|---|---|---|
| 1778036548 | 25° C | 85% | 1009.5 hPa | 0 mm | 0.45 m/s, 171° | - | - |
| 1778035949 | 25° C | 85% | 1009.5 hPa | 0 mm | 0.45 m/s, 165° | - | - |
| 1778035345 | 25° C | 85% | 1009.5 hPa | 0 mm | 0.45 m/s, 184° | - | - |
| 1778034742 | 25° C | 85% | 1009.4 hPa | 0 mm | 0.45 m/s, 146° | - | - |
| 1778034159 | 25° C | 85% | 1009.1 hPa | 0 mm | 0.45 m/s, 148° | - | - |
| 1778033559 | 25° C | 84% | 1008.8 hPa | 0 mm | 0.45 m/s, 157° | - | - |
| 1778032955 | 25.56° C | 84% | 1008.6 hPa | 0 mm | 0.89 m/s, 142° | - | - |
| 1778032350 | 25.56° C | 84% | 1008.3 hPa | 0 mm | 0.89 m/s, 152° | - | - |
| 1778031749 | 25.56° C | 84% | 1008.2 hPa | 0 mm | 0.45 m/s, 217° | - | - |
| 1778031144 | 25.56° C | 84% | 1008.2 hPa | 0 mm | 1.34 m/s, 176° | - | - |
| 1778030561 | 26.11° C | 83% | 1008 hPa | 0 mm | 1.34 m/s, 202° | - | - |
| 1778029957 | 26.11° C | 83% | 1007.8 hPa | 0 mm | 1.79 m/s, 119° | - | - |
| 1778029356 | 26.11° C | 82% | 1007.8 hPa | 0 mm | 1.79 m/s, 121° | - | - |
| 1778028752 | 26.67° C | 82% | 1007.7 hPa | 0 mm | 0.89 m/s, 168° | - | - |
| 1778028148 | 26.67° C | 82% | 1007.7 hPa | 0 mm | 0.89 m/s, 147° | - | - |
| 1778027548 | 27.22° C | 81% | 1007.5 hPa | 0 mm | 0.89 m/s, 74° | - | - |
| 1778026964 | 27.22° C | 81% | 1007.5 hPa | 0 mm | 0.89 m/s, 140° | - | - |
| 1778026358 | 27.78° C | 80% | 1007.6 hPa | 0 mm | 0.45 m/s, 109° | - | - |
| 1778025759 | 27.78° C | 79% | 1007.6 hPa | 0 mm | 0.89 m/s, 169° | - | - |
| 1778025156 | 27.78° C | 78% | 1007.6 hPa | 0 mm | 1.34 m/s, 154° | - | - |
| 1778024552 | 28.33° C | 77% | 1007.5 hPa | 0 mm | 1.34 m/s, 215° | - | - |
| 1778023969 | 28.33° C | 77% | 1007.6 hPa | 0 mm | 0.45 m/s, 189° | - | - |
| 1778023370 | 28.33° C | 77% | 1007.5 hPa | 0 mm | 0.89 m/s, 151° | - | - |
| 1778022766 | 28.33° C | 76% | 1007.6 hPa | 0 mm | 1.34 m/s, 209° | - | - |
| 1778022162 | 28.33° C | 76% | 1007.6 hPa | 0 mm | 0.89 m/s, 136° | - | - |
* Rain latest hour (hover to see other rain measurements)
** Current wind speed in m/s (hover to see current wind gust speed)